Location: Poprad
(49.0500°N, 20.3000°E)
Time: 07:50:39
(UTC+01:00)

ISS - Visible Passes

Search period start: 19 February 2019 00:00
Search period end: 01 March 2019 00:00
Orbit: 403 x 411 km, 51.6° (Epoch: 19 February)

Date Brightness Start Highest point End Pass type
(mag) Time Alt. Az. Time Alt. Az. Time Alt. Az.
22 Feb -0.7 05:51:44 10° SSE 05:53:09 12° SE 05:54:33 10° ESE visible
24 Feb -1.6 05:43:37 10° SSW 05:46:20 24° SE 05:49:03 10° E visible
25 Feb -1.0 04:53:01 10° S 04:55:01 15° SE 04:57:00 10° E visible
26 Feb -2.9 05:36:27 10° SW 05:39:36 46° SSE 05:42:45 10° ENE visible
27 Feb -2.2 04:46:29 19° SSW 04:48:09 29° SE 04:51:03 10° E visible
28 Feb -1.4 03:57:12 18° SE 03:57:12 18° SE 03:59:09 10° E visible
28 Feb -3.8 05:29:55 12° WSW 05:32:56 83° SSE 05:36:12 10° ENE visible
